Location: Zagreb
(45.8000°N, 16.0000°E)
Time: 16:21:56
(UTC+02:00)

Envisat - Pass Details

Date: 29 June 2022
Orbit: 763 x 765 km, 98.2° (Epoch: 16 August)

Event Time Altitude Azimuth Distance (km) Brightness Sun altitude
Rises 04:00:48 0° 33° (NNE) 3,242 8.4 -9.6°
Reaches altitude 10° 04:04:36 10° 62° (ENE) 2,308 6.8 -9.2°
Maximum altitude 04:06:45 13° 87° (E) 2,127 6.0 -8.9°
Drops below altitude 10° 04:08:54 10° 112° (ESE) 2,300 5.8 -8.7°
Sets 04:12:39 0° 141° (SE) 3,219 6.2 -8.2°
